Location: Alpha Ridge Park
(39.3209°N, 76.9128°W)
Time: 10:03:33
(UTC-04:00)

S-56A Canister/Altair - Pass Details

Date: 24 May 2019
Orbit: 633 x 2499 km, 38.9° (Epoch: 23 June)

Event Time Altitude Azimuth Distance (km) Brightness Sun altitude
Rises 05:41:15 0° 278° (W) 4,018 10.7 -1.9°
Reaches altitude 10° 05:43:37 10° 278° (W) 3,259 10.3 -1.5°
Maximum altitude 05:52:05 80° 192° (SSW) 1,714 9.3 0.0°
Drops below altitude 10° 06:04:56 10° 108° (ESE) 4,773 12.4 2.2°
Sets 06:09:09 0° 108° (ESE) 5,957 12.9 3.0°
